Weather History for Guymon, OK

Change the Weather History Date:

Thursday, February 21, 2013

  Actual Average Record
Temperature  
Mean Temperature 22 °F 40 °F  
Max Temperature 32 °F 54 °F 79 °F (2000)
Min Temperature 11 °F 25 °F 10 °F (2006)
Degree Days  
Heating Degree Days 43 25  
Month to date heating degree days 537 568  
Since 1 July heating degree days 2995 3296  
Cooling Degree Days 0 0  
Month to date cooling degree days 0 0  
Year to date cooling degree days 0 0  
Moisture  
Dew Point 21 °F    
Average Humidity 82    
Maximum Humidity 92    
Minimum Humidity 71    
Precipitation  
Precipitation 0.34 in 0.02 in 0.34 in (2013)
Month to date precipitation 0.91 0.34  
Year to date precipitation 1.22 0.74  
Snow  
Snow 7.00 in - - ()
Month to date snowfall 11.0  
Since 1 July snowfall 14.2  
Snow Depth 1.00 in    
Sea Level Pressure  
Sea Level Pressure 29.74 in    
Wind  
Wind Speed 12 mph (NNE)    
Max Wind Speed 22 mph    
Max Gust Speed 26 mph    
Visibility 5 miles    
Events Fog , Snow    
T = Trace of Precipitation, MM = Missing Value Source: NWS Daily Summary

Daily Weather History Graph

Daily Weather History Graph

Search for Another Location

Airport:

Trip Planner

Search our weather history database for the weather conditions in past years. The results will help you decide how hot, cold, wet, or windy it might be!

Date:

Astronomy

Feb. 21, 2013 Rise Set
Actual Time 7:26 AM CST 6:32 PM CST
Civil Twilight 7:00 AM CST 6:59 PM CST
Nautical Twilight 6:30 AM CST 7:29 PM CST
Astronomical Twilight 6:00 AM CST 7:59 PM CST
Moon 2:53 PM CST 4:28 AM CST
Length of Visible Light 11h 58m
Length of Day
11h 06m
Waxing Gibbous, 84% of the Moon is Illuminated
Feb 21
Waxing Gibbous
Feb 25
Full
Mar 4
Last Quarter
Mar 11
New
Mar 19
First Quarter

Hourly Weather History & Observations

Time (CST) Temp. Windchill Dew Point Humidity Pressure Visibility Wind Dir Wind Speed Gust Speed Precip Events Conditions
12:53 AM 30.9 °F 21.7 °F 28.9 °F 92% 29.68 in 10.0 mi ESE 11.5 mph 23.0 mph 0.00 in   Overcast
1:53 AM 30.9 °F 21.2 °F 28.9 °F 92% 29.65 in 10.0 mi East 12.7 mph 21.9 mph N/A   Overcast
2:53 AM 30.9 °F 21.2 °F 28.9 °F 92% 29.65 in 10.0 mi ESE 12.7 mph - 0.00 in   Overcast
3:53 AM 30.9 °F 25.2 °F 28.9 °F 92% 29.64 in 10.0 mi East 5.8 mph - N/A   Overcast
4:53 AM 30.9 °F 24.3 °F 28.0 °F 89% 29.66 in 10.0 mi ESE 6.9 mph - 0.00 in Snow Light Snow
5:26 AM 30.2 °F 24.3 °F 28.4 °F 93% 29.64 in 1.8 mi East 5.8 mph - 0.01 in Snow Light Snow
5:53 AM 30.9 °F 27.5 °F 28.9 °F 92% 29.65 in 1.5 mi East 3.5 mph - 0.02 in Snow Light Snow
6:18 AM 30.2 °F 23.4 °F 28.4 °F 93% 29.62 in 2.0 mi East 6.9 mph - 0.01 in Snow Light Snow
6:26 AM 30.2 °F 24.3 °F 28.4 °F 93% 29.61 in 3.0 mi ENE 5.8 mph - 0.02 in Snow Light Snow
6:53 AM 30.0 °F 22.4 °F 28.0 °F 92% 29.63 in 3.0 mi ENE 8.1 mph - 0.02 in Snow Light Snow
7:04 AM 30.2 °F 21.9 °F 26.6 °F 86% 29.62 in 2.0 mi ENE 9.2 mph - 0.01 in Snow Light Snow
7:20 AM 28.4 °F 18.5 °F 26.6 °F 93% 29.62 in 2.5 mi NE 11.5 mph - 0.01 in Snow Light Snow
7:27 AM 28.4 °F 18.0 °F 26.6 °F 93% 29.61 in 4.0 mi NE 12.7 mph - 0.01 in Snow Light Snow
7:53 AM 28.9 °F 19.8 °F 27.0 °F 92% 29.65 in 9.0 mi NE 10.4 mph - 0.01 in   Overcast
8:14 AM 28.4 °F 19.7 °F 26.6 °F 93% 29.63 in 1.8 mi NE 9.2 mph - 0.00 in Snow Light Snow
8:36 AM 28.4 °F 20.4 °F 26.6 °F 93% 29.64 in 0.8 mi NE 8.1 mph - 0.02 in Snow Light Snow
8:53 AM 28.9 °F 21.9 °F 26.1 °F 89% 29.70 in 0.8 mi East 6.9 mph - 0.03 in Snow Light Snow
9:01 AM 28.4 °F 21.2 °F 26.6 °F 93% 29.68 in 0.5 mi East 6.9 mph - 0.01 in Fog , Snow Snow
9:09 AM 26.6 °F 15.2 °F 24.8 °F 93% 29.67 in 0.2 mi ENE 13.8 mph 18.4 mph 0.03 in Fog , Snow Heavy Snow
9:26 AM 24.8 °F 12.4 °F 21.2 °F 86% 29.65 in 0.2 mi NE 15.0 mph - 0.05 in Fog , Snow Heavy Snow
9:32 AM 24.8 °F 11.5 °F 23.0 °F 93% 29.65 in 0.5 mi NE 17.3 mph - 0.05 in Fog , Snow Snow
9:53 AM 24.1 °F 11.0 °F 21.9 °F 91% 29.68 in 0.5 mi NE 16.1 mph - 0.08 in Fog , Snow Snow
10:12 AM 24.8 °F 12.9 °F 21.2 °F 86% 29.66 in 0.2 mi NE 13.8 mph 19.6 mph 0.01 in Fog , Snow Heavy Snow
10:29 AM 24.8 °F 11.1 °F 21.2 °F 86% 29.67 in 0.2 mi NNE 18.4 mph 24.2 mph 0.03 in Fog Light Freezing Fog
10:53 AM 21.9 °F 8.7 °F 19.0 °F 89% 29.73 in 0.2 mi NNE 15.0 mph - 0.05 in Fog Light Freezing Fog
11:32 AM 21.2 °F 7.3 °F 17.6 °F 86% 29.71 in 0.5 mi NNE 16.1 mph - 0.08 in Fog Light Freezing Fog
11:53 AM 21.0 °F 6.2 °F 17.1 °F 85% 29.77 in 0.5 mi NNE 18.4 mph - 0.10 in Fog Light Freezing Fog
12:53 PM 19.9 °F 7.3 °F 17.1 °F 89% 29.80 in 0.5 mi North 12.7 mph - 0.02 in Fog Light Freezing Fog
1:11 PM 21.2 °F 7.8 °F 17.6 °F 86% 29.75 in 0.8 mi North 15.0 mph - 0.01 in   Mist
1:18 PM 21.2 °F 8.9 °F 17.6 °F 86% 29.75 in 1.2 mi North 12.7 mph - 0.01 in   Overcast
1:24 PM 21.2 °F 7.3 °F 15.8 °F 80% 29.75 in 2.0 mi North 16.1 mph - 0.01 in   Haze
1:33 PM 21.2 °F 7.3 °F 17.6 °F 86% 29.75 in 5.0 mi North 16.1 mph - 0.01 in   Haze
1:43 PM 21.2 °F 6.8 °F 15.8 °F 80% 29.76 in 10.0 mi North 17.3 mph - 0.01 in   Overcast
1:53 PM 21.9 °F 8.2 °F 17.1 °F 82% 29.80 in 10.0 mi North 16.1 mph - 0.01 in   Overcast
2:53 PM 23.0 °F 8.7 °F 17.1 °F 78% 29.81 in 10.0 mi NNW 18.4 mph - N/A   Overcast
3:43 PM 23.0 °F 9.2 °F 15.8 °F 74% 29.78 in 10.0 mi NNW 17.3 mph - N/A   Overcast
3:53 PM 23.0 °F 8.7 °F 16.0 °F 74% 29.83 in 10.0 mi NNW 18.4 mph - N/A   Overcast
4:03 PM 24.8 °F 11.1 °F 17.6 °F 74% 29.78 in 10.0 mi NNW 18.4 mph - N/A   Overcast
4:35 PM 23.0 °F 9.6 °F 15.8 °F 74% 29.80 in 10.0 mi NNW 16.1 mph - N/A   Mostly Cloudy
4:53 PM 21.9 °F 7.3 °F 15.1 °F 75% 29.83 in 10.0 mi NNW 18.4 mph - N/A   Partly Cloudy
5:53 PM 21.0 °F 8.1 °F 14.0 °F 74% 29.87 in 10.0 mi NNW 13.8 mph - N/A   Clear
6:53 PM 17.1 °F 5.8 °F 12.0 °F 81% 29.91 in 10.0 mi NW 9.2 mph - N/A   Clear
7:53 PM 16.0 °F 6.3 °F 10.9 °F 81% 29.95 in 10.0 mi West 6.9 mph - N/A   Clear
8:53 PM 14.0 °F 2.0 °F 10.0 °F 84% 29.97 in 10.0 mi WNW 9.2 mph - N/A   Overcast
9:53 PM 12.0 °F -2.7 °F 8.1 °F 84% 30.00 in 10.0 mi NW 12.7 mph - N/A   Overcast
10:53 PM 15.1 °F 2.5 °F 10.0 °F 80% 30.01 in 10.0 mi West 10.4 mph - N/A   Clear
11:35 PM 12.2 °F 2.9 °F 8.6 °F 85% 29.96 in 10.0 mi West 5.8 mph - N/A   Mostly Cloudy
11:53 PM 14.0 °F 3.9 °F 10.0 °F 84% 30.05 in 10.0 mi West 6.9 mph - N/A   Mostly Cloudy